Regional Weather Roundup
Issued by NWS

Home | Current Version | Previous Version | Text Only | Print | Product List | Glossary On
Versions: 1 2 3 4 5 6 7 8 9 10 11 12 13 14 15 16 17 18 19 20 21 22 23 24 25 26 27 28 29 30 31 32 33 34 35 36 37 38 39 40 41 42 43 44 45 46 47 48 49 50
000
ASUS44 KMEG 231410
RWRTN
TENNESSEE HOURLY STATE WEATHER ROUNDUP
NATIONAL WEATHER SERVICE MEMPHIS TN
900 AM CDT SUN APR 23 2017

TNZ002-004-019-021-049-052-054-088>092-231500-
WEST TENNESSEE

CITY           SKY/WX    TMP DP  RH WIND       PRES   REMARKS
MEMPHIS INTL   DRIZZLE   52  48  86 N10G18    29.95R
NWS MEMPHIS      N/A     49 N/A N/A MISG        N/A
JACKSON        CLOUDY    50  48  93 N12       29.91S
DYERSBURG      CLOUDY    51  42  71 N13G18    29.95S
SOMERVILLE     PTSUNNY   50  48  93 N10G20    29.92R
UNION CITY     CLOUDY    50  43  76 N13G21    29.93S
BOLIVAR        PTSUNNY   50  48  93 NW9G16    29.91R FOG
PARIS          CLOUDY    46  41  81 N12       29.92R
HUNTINGDON     CLOUDY    48  46  93 N9        29.90S FOG
LEXINGTON      PTSUNNY   48  48 100 N8G18     29.88S FOG
SAVANNAH       FOG       50  50 100 N10       29.87S VSB 1
$$

TNZ008-025-027-028-033-062-065-066-231500-
NORTH MIDDLE TENNESSEE

CITY           SKY/WX    TMP DP  RH WIND       PRES   REMARKS
NASHVILLE      LGT RAIN  52  50  93 N15       29.84F FOG
PORTLAND       CLOUDY    48  48 100 N10       29.86S
CLARKSVILLE    LGT RAIN  49  44  83 N14       29.89S
SMYRNA         LGT RAIN  52  50  93 N10       29.84F FOG
COOKEVILLE     PTSUNNY   52  52 100 N8        29.79F
CROSSVILLE     LGT RAIN  49  48  97 N5        29.83S FOG
$$

TNZ061-075-076-078-094-096-097-231500-
SOUTH MIDDLE TENNESSEE

CITY           SKY/WX    TMP DP  RH WIND       PRES   REMARKS
FAYETTEVILLE   CLOUDY    52  52 100 NW7       29.81R
TULLAHOMA      CLOUDY    52  52 100 NW6       29.81R
WINCHESTER     CLOUDY    54  52  94 NW3       29.81R
MCMINNVILLE    CLOUDY    54  54 100 NE5       29.81R
COLUMBIA       CLOUDY   N/A N/A N/A N6        29.82S
SHELBYVILLE    CLOUDY    52  52 100 N8        29.82S
$$

TNZ017-018-042-046-047-231500-
NORTHEAST TENNESSEE

CITY           SKY/WX    TMP DP  RH WIND       PRES   REMARKS
TRI CITIES     RAIN      53  51  93 CALM      29.93R FOG
ELIZABETHTON   LGT RAIN  55  52  88 E6G15     29.92R
$$

TNZ012-013-036-069-073-074-231500-
CENTRAL EAST TENNESSEE

CITY           SKY/WX    TMP DP  RH WIND       PRES   REMARKS
KNOXVILLE      HVY RAIN  57  56  96 NE12      29.80F FOG
OAK RIDGE      RAIN      55  53  93 VRB3      29.84S FOG
DOWNTOWN KNOXV CLOUDY    57  57 100 VRB6      29.83F FOG
GATLINBURG     CLOUDY    57  57 100 CALM      29.83R
MORRISTOWN     CLOUDY    55  55 100 E8G15     29.84S FOG
JACKSBORO      CLOUDY    54  52  94 CALM      29.88S FOG
$$

TNZ083-085-099-231500-
SOUTHEAST TENNESSEE

CITY           SKY/WX    TMP DP  RH WIND       PRES   REMARKS
CHATTANOOGA    LGT RAIN  63  60  90 S8        29.77S FOG
$$

SKY/WX REPORTED AS FAIR MEANS FEW OR NO CLOUDS BELOW
12 THOUSAND FEET.




USA.gov is the U.S. government's official web portal to all federal, state and local government web resources and services.